FHY915 LTAI-EDDL

Flight info

Callsign FHY915
Flight time 3h 35m
Altitude 36000
Route EKNUD1K/18L EKNUD UQ26 DIGBO UL615 VADEN DCT UTEKA DCT BABIT DCT SASAL DCT LAMSI DCT TESDU DCT AMETU T852 TINSA T854 DOMUX DOMUX1A
Aircraft A320/M-SDE3FGHIRWY/LB1

Departure

Time 2026-05-06 13:47
Airport Antalya International Airport (LTAI)

Arrival

Time 2026-05-06 17:22
Airport Düsseldorf Airport (EDDL)
Time Latitude Longitude Altitude Speed Heading
2026-05-06 13:21 36.91339 30.80074 204 ft 0 kts 96°
2026-05-06 13:34 36.91339 30.80070 191 ft 2 kts 96°
2026-05-06 13:35 36.91341 30.80049 202 ft 2 kts 96°
2026-05-06 13:35 36.91343 30.80029 196 ft 2 kts 96°
2026-05-06 13:35 36.91345 30.80008 194 ft 2 kts 96°
2026-05-06 13:35 36.91346 30.79988 194 ft 2 kts 96°
2026-05-06 13:36 36.91348 30.79967 202 ft 2 kts 96°
2026-05-06 13:36 36.91350 30.79947 204 ft 2 kts 95°
2026-05-06 13:36 36.91351 30.79926 203 ft 2 kts 96°
2026-05-06 13:36 36.91357 30.79908 203 ft 2 kts 159°
2026-05-06 13:37 36.91373 30.79903 194 ft 2 kts 182°
2026-05-06 13:37 36.91389 30.79905 195 ft 2 kts 186°
2026-05-06 13:37 36.91406 30.79907 191 ft 2 kts 186°
2026-05-06 13:37 36.91418 30.79909 208 ft 1 kts 186°
2026-05-06 13:38 36.91420 30.79909 208 ft 0 kts 186°
2026-05-06 13:39 36.91419 30.79909 208 ft 1 kts 186°
2026-05-06 13:40 36.91394 30.79906 191 ft 6 kts 186°
2026-05-06 13:40 36.91341 30.79900 198 ft 10 kts 185°
2026-05-06 13:40 36.91262 30.79889 191 ft 13 kts 186°
2026-05-06 13:40 36.91160 30.79875 191 ft 16 kts 186°
2026-05-06 13:41 36.91051 30.79860 191 ft 16 kts 186°
2026-05-06 13:41 36.90939 30.79844 197 ft 15 kts 187°
2026-05-06 13:41 36.90881 30.79765 197 ft 13 kts 226°
2026-05-06 13:41 36.90790 30.79735 197 ft 15 kts 186°
2026-05-06 13:42 36.90673 30.79719 203 ft 18 kts 186°
2026-05-06 13:42 36.90535 30.79700 204 ft 21 kts 186°
2026-05-06 13:42 36.90403 30.79750 191 ft 22 kts 116°
2026-05-06 13:42 36.90383 30.79944 205 ft 23 kts 96°
2026-05-06 13:43 36.90365 30.80146 191 ft 24 kts 96°
2026-05-06 13:43 36.90347 30.80351 196 ft 24 kts 96°
2026-05-06 13:43 36.90328 30.80559 197 ft 24 kts 96°
2026-05-06 13:43 36.90325 30.80763 191 ft 23 kts 65°
2026-05-06 13:44 36.90460 30.80813 201 ft 20 kts
2026-05-06 13:44 36.90590 30.80831 200 ft 19 kts
2026-05-06 13:44 36.90733 30.80850 191 ft 23 kts
2026-05-06 13:44 36.90903 30.80874 195 ft 27 kts
2026-05-06 13:45 36.91083 30.80898 195 ft 22 kts
2026-05-06 13:45 36.91084 30.81136 199 ft 15 kts 174°
2026-05-06 13:45 36.91031 30.81129 192 ft 2 kts 186°
2026-05-06 13:46 36.90964 30.81120 191 ft 34 kts 185°
2026-05-06 13:46 36.90495 30.81056 190 ft 98 kts 187°
2026-05-06 13:46 36.89637 30.80936 194 ft 148 kts 186°
2026-05-06 13:46 36.88537 30.80801 575 ft 155 kts 181°
2026-05-06 13:47 36.87522 30.80961 1337 ft 143 kts 170°
2026-05-06 13:47 36.86527 30.81154 2003 ft 151 kts 171°
2026-05-06 13:47 36.85409 30.81343 2394 ft 174 kts 170°
2026-05-06 13:47 36.84136 30.81557 2804 ft 195 kts 171°
2026-05-06 13:48 36.82715 30.81798 3140 ft 214 kts 171°
2026-05-06 13:48 36.81213 30.82056 3680 ft 221 kts 171°
2026-05-06 13:48 36.79687 30.82409 4297 ft 226 kts 159°
2026-05-06 13:48 36.78180 30.83235 4575 ft 248 kts 154°
2026-05-06 13:49 36.76553 30.84215 4890 ft 269 kts 153°
2026-05-06 13:49 36.74960 30.85482 5470 ft 276 kts 133°
2026-05-06 13:49 36.73911 30.87486 6131 ft 279 kts 107°
2026-05-06 13:49 36.73569 30.89862 6805 ft 281 kts 93°
2026-05-06 13:50 36.73377 30.92298 7492 ft 284 kts 93°
2026-05-06 13:50 36.73187 30.94762 8212 ft 287 kts 93°
2026-05-06 13:50 36.73038 30.97259 8909 ft 290 kts 85°
2026-05-06 13:50 36.73464 30.99693 9581 ft 288 kts 62°
2026-05-06 13:51 36.74591 31.01688 10226 ft 286 kts 39°
2026-05-06 13:51 36.76276 31.03010 10642 ft 295 kts 17°
2026-05-06 13:51 36.78352 31.03375 10790 ft 313 kts 354°
2026-05-06 13:51 36.80589 31.03020 10913 ft 335 kts 351°
2026-05-06 13:52 36.82965 31.02615 11033 ft 354 kts 351°
2026-05-06 13:52 36.85459 31.02193 11359 ft 366 kts 352°
2026-05-06 13:52 36.87997 31.01769 11917 ft 370 kts 352°
2026-05-06 13:52 36.90562 31.01346 12515 ft 373 kts 352°
2026-05-06 13:53 36.93151 31.00922 13129 ft 376 kts 352°
2026-05-06 13:53 36.95752 31.00496 13746 ft 379 kts 352°
2026-05-06 13:53 36.98375 31.00065 14280 ft 381 kts 351°
2026-05-06 13:53 37.01016 30.99631 14800 ft 384 kts 351°
2026-05-06 13:54 37.03679 30.99193 15301 ft 388 kts 351°
2026-05-06 13:54 37.06361 30.98754 15815 ft 391 kts 351°
2026-05-06 13:54 37.09067 30.98315 16329 ft 393 kts 351°
2026-05-06 13:54 37.11786 30.97876 16857 ft 396 kts 351°
2026-05-06 13:55 37.14533 30.97427 17361 ft 399 kts 351°
2026-05-06 13:55 37.17301 30.96971 17858 ft 402 kts 350°
2026-05-06 13:55 37.20088 30.96508 18342 ft 405 kts 350°
2026-05-06 13:55 37.22896 30.96040 18753 ft 408 kts 350°
2026-05-06 13:56 37.25717 30.95572 19069 ft 411 kts 350°
2026-05-06 13:56 37.28558 30.95104 19482 ft 412 kts 350°
2026-05-06 13:56 37.31407 30.94633 19906 ft 413 kts 350°
2026-05-06 13:56 37.34267 30.94161 20317 ft 415 kts 350°
2026-05-06 13:57 37.37138 30.93689 20706 ft 417 kts 350°
2026-05-06 13:57 37.39988 30.93216 21058 ft 419 kts 350°
2026-05-06 13:57 37.42889 30.92731 21421 ft 421 kts 350°
2026-05-06 13:57 37.45835 30.92239 21782 ft 423 kts 350°
2026-05-06 13:58 37.48719 30.91762 22123 ft 425 kts 351°
2026-05-06 13:58 37.51656 30.91278 22447 ft 427 kts 351°
2026-05-06 13:58 37.54606 30.90794 22774 ft 428 kts 351°
2026-05-06 13:58 37.57568 30.90307 23083 ft 430 kts 351°
2026-05-06 13:59 37.60543 30.89811 23409 ft 432 kts 351°
2026-05-06 13:59 37.63529 30.89310 23712 ft 434 kts 351°
2026-05-06 13:59 37.66528 30.88809 23979 ft 435 kts 351°
2026-05-06 13:59 37.69532 30.88306 24254 ft 436 kts 351°
2026-05-06 14:00 37.72544 30.87802 24525 ft 437 kts 350°
2026-05-06 14:00 37.75565 30.87295 24775 ft 438 kts 350°
2026-05-06 14:00 37.78589 30.86788 25019 ft 439 kts 350°
2026-05-06 14:00 37.81619 30.86284 25247 ft 439 kts 351°
2026-05-06 14:01 37.84659 30.85776 25461 ft 440 kts 350°
2026-05-06 14:01 37.87698 30.85264 25675 ft 442 kts 350°
2026-05-06 14:01 37.90750 30.84752 25881 ft 443 kts 350°
2026-05-06 14:01 37.93808 30.84241 26074 ft 444 kts 350°
2026-05-06 14:02 37.95837 30.83902 26197 ft 445 kts 350°
2026-05-06 14:02 37.98911 30.83384 26382 ft 446 kts 350°
2026-05-06 14:02 38.01981 30.82867 26628 ft 445 kts 350°
2026-05-06 14:02 38.05050 30.82353 26896 ft 443 kts 350°
2026-05-06 14:03 38.08105 30.81840 27149 ft 442 kts 350°
2026-05-06 14:03 38.11154 30.81326 27428 ft 441 kts 350°
2026-05-06 14:03 38.14196 30.80811 27710 ft 440 kts 350°
2026-05-06 14:03 38.17228 30.80305 27974 ft 439 kts 350°
2026-05-06 14:04 38.20258 30.79807 28255 ft 438 kts 350°
2026-05-06 14:04 38.23278 30.79314 28530 ft 438 kts 350°
2026-05-06 14:04 38.26297 30.78823 28795 ft 436 kts 350°
2026-05-06 14:04 38.29308 30.78332 29041 ft 436 kts 350°
2026-05-06 14:05 38.32273 30.77846 29313 ft 435 kts 350°
2026-05-06 14:05 38.35269 30.77350 29597 ft 434 kts 350°
2026-05-06 14:05 38.38260 30.76847 29893 ft 433 kts 350°
2026-05-06 14:05 38.41285 30.76339 30177 ft 432 kts 350°
2026-05-06 14:06 38.44225 30.75852 30400 ft 431 kts 350°
2026-05-06 14:06 38.47197 30.75363 30616 ft 431 kts 350°
2026-05-06 14:06 38.50171 30.74874 30833 ft 430 kts 350°
2026-05-06 14:06 38.53141 30.74384 31062 ft 430 kts 350°
2026-05-06 14:07 38.56105 30.73893 31285 ft 429 kts 350°
2026-05-06 14:07 38.59063 30.73400 31503 ft 428 kts 350°
2026-05-06 14:07 38.62018 30.72905 31739 ft 428 kts 350°
2026-05-06 14:07 38.64968 30.72414 31976 ft 427 kts 350°
2026-05-06 14:08 38.67911 30.71921 32208 ft 426 kts 350°
2026-05-06 14:08 38.70846 30.71428 32428 ft 425 kts 350°
2026-05-06 14:08 38.73779 30.70936 32657 ft 424 kts 350°
2026-05-06 14:08 38.76703 30.70450 32881 ft 423 kts 350°
2026-05-06 14:09 38.79622 30.69962 33098 ft 423 kts 350°
2026-05-06 14:09 38.82535 30.69467 33311 ft 422 kts 348°
2026-05-06 14:09 38.85378 30.68615 33515 ft 418 kts 339°
2026-05-06 14:09 38.88058 30.67191 33730 ft 415 kts 332°
2026-05-06 14:10 38.90628 30.65503 33955 ft 415 kts 332°
2026-05-06 14:10 38.93195 30.63823 34164 ft 414 kts 332°
2026-05-06 14:10 38.95762 30.62147 34336 ft 413 kts 332°
2026-05-06 14:10 38.98328 30.60480 34497 ft 414 kts 332°
2026-05-06 14:11 39.00898 30.58812 34663 ft 414 kts 332°
2026-05-06 14:11 39.03469 30.57140 34815 ft 414 kts 332°
2026-05-06 14:11 39.06004 30.55487 34956 ft 414 kts 332°
2026-05-06 14:11 39.08607 30.53787 35097 ft 414 kts 332°
2026-05-06 14:12 39.11178 30.52104 35224 ft 415 kts 332°
2026-05-06 14:12 39.13713 30.50442 35356 ft 415 kts 332°
2026-05-06 14:12 39.16287 30.48755 35484 ft 415 kts 332°
2026-05-06 14:12 39.18861 30.47069 35611 ft 415 kts 332°
2026-05-06 14:13 39.21436 30.45381 35743 ft 415 kts 332°
2026-05-06 14:13 39.24007 30.43691 35871 ft 415 kts 332°
2026-05-06 14:13 39.26577 30.41999 36022 ft 415 kts 332°
2026-05-06 14:13 39.29151 30.40306 36072 ft 416 kts 332°
2026-05-06 14:14 39.34333 30.36896 36071 ft 419 kts 332°
2026-05-06 14:14 39.39524 30.33476 36068 ft 419 kts 332°
2026-05-06 14:15 39.44723 30.30048 36070 ft 419 kts 332°
2026-05-06 14:15 39.49913 30.26616 36078 ft 419 kts 333°
2026-05-06 14:16 39.55241 30.23537 36077 ft 420 kts 336°
2026-05-06 14:16 39.60683 30.20764 36086 ft 420 kts 337°
2026-05-06 14:17 39.66123 30.17976 36080 ft 420 kts 336°
2026-05-06 14:17 39.71532 30.15102 36081 ft 420 kts 336°
2026-05-06 14:18 39.76925 30.12191 36083 ft 420 kts 336°
2026-05-06 14:18 39.82288 30.09292 36083 ft 420 kts 336°
2026-05-06 14:19 39.87689 30.06392 36081 ft 420 kts 336°
2026-05-06 14:19 39.93086 30.03486 36084 ft 420 kts 336°
2026-05-06 14:20 39.98481 30.00575 36088 ft 420 kts 336°
2026-05-06 14:20 40.03871 29.97661 36081 ft 419 kts 336°
2026-05-06 14:21 40.09258 29.94742 36074 ft 419 kts 336°
2026-05-06 14:21 40.14645 29.91824 36074 ft 419 kts 336°
2026-05-06 14:22 40.20032 29.88899 36074 ft 419 kts 336°
2026-05-06 14:22 40.25415 29.85967 36070 ft 419 kts 336°
2026-05-06 14:23 40.30805 29.83037 36068 ft 419 kts 336°
2026-05-06 14:23 40.36191 29.80104 36067 ft 419 kts 336°
2026-05-06 14:24 40.41535 29.77174 36069 ft 419 kts 336°
2026-05-06 14:24 40.46913 29.74217 36067 ft 419 kts 336°
2026-05-06 14:25 40.52292 29.71266 36072 ft 419 kts 336°
2026-05-06 14:25 40.57404 29.68455 36074 ft 418 kts 336°
2026-05-06 14:26 40.62772 29.65498 36071 ft 418 kts 336°
2026-05-06 14:26 40.67861 29.61847 36078 ft 417 kts 322°
2026-05-06 14:27 40.72395 29.57063 36070 ft 417 kts 322°
2026-05-06 14:27 40.76928 29.52280 36085 ft 417 kts 322°
2026-05-06 14:28 40.81466 29.47494 36079 ft 417 kts 322°
2026-05-06 14:28 40.85997 29.42709 36085 ft 417 kts 322°
2026-05-06 14:29 40.90528 29.37909 36088 ft 417 kts 322°
2026-05-06 14:29 40.95054 29.33101 36089 ft 417 kts 322°
2026-05-06 14:30 40.99580 29.28287 36083 ft 417 kts 322°
2026-05-06 14:30 41.04104 29.23471 36080 ft 417 kts 322°
2026-05-06 14:31 41.08624 29.18652 36081 ft 417 kts 322°
2026-05-06 14:31 41.12940 29.13520 36078 ft 418 kts 311°
2026-05-06 14:32 41.16271 29.07183 36080 ft 419 kts 306°
2026-05-06 14:32 41.19499 29.00743 36080 ft 419 kts 306°
2026-05-06 14:33 41.22726 28.94292 36083 ft 419 kts 306°
2026-05-06 14:33 41.25945 28.87829 36080 ft 419 kts 306°
2026-05-06 14:34 41.29136 28.81410 36081 ft 419 kts 306°
2026-05-06 14:34 41.32365 28.74905 36081 ft 419 kts 306°
2026-05-06 14:35 41.35548 28.68482 36082 ft 418 kts 306°
2026-05-06 14:35 41.38751 28.62011 36083 ft 418 kts 306°
2026-05-06 14:36 41.41946 28.55536 36086 ft 418 kts 306°
2026-05-06 14:36 41.45137 28.49056 36089 ft 418 kts 306°
2026-05-06 14:37 41.48321 28.42575 36094 ft 418 kts 306°
2026-05-06 14:37 41.51501 28.36090 36096 ft 418 kts 306°
2026-05-06 14:38 41.54681 28.29599 36089 ft 418 kts 306°
2026-05-06 14:38 41.57848 28.23107 36089 ft 417 kts 306°
2026-05-06 14:39 41.61018 28.16607 36087 ft 417 kts 306°
2026-05-06 14:39 41.64184 28.10105 36085 ft 417 kts 306°
2026-05-06 14:40 41.67319 28.03640 36081 ft 417 kts 305°
2026-05-06 14:40 41.70478 27.97121 36077 ft 417 kts 305°
2026-05-06 14:41 41.73630 27.90599 36073 ft 417 kts 305°
2026-05-06 14:41 41.76778 27.84074 36069 ft 417 kts 305°
2026-05-06 14:42 41.79923 27.77538 36064 ft 417 kts 305°
2026-05-06 14:42 41.83071 27.70993 36059 ft 417 kts 305°
2026-05-06 14:43 41.86208 27.64433 36056 ft 418 kts 305°
2026-05-06 14:43 41.89342 27.57865 36054 ft 418 kts 305°
2026-05-06 14:44 41.92476 27.51301 36051 ft 418 kts 305°
2026-05-06 14:45 41.97176 27.41447 36046 ft 417 kts 305°
2026-05-06 14:45 42.00300 27.34863 36044 ft 417 kts 304°
2026-05-06 14:46 42.03392 27.28316 36044 ft 417 kts 304°
2026-05-06 14:46 42.06517 27.21677 36044 ft 417 kts 304°
2026-05-06 14:47 42.09447 27.14928 36044 ft 418 kts 301°
2026-05-06 14:47 42.12230 27.08061 36036 ft 418 kts 301°
2026-05-06 14:48 42.15009 27.01192 36038 ft 417 kts 301°
2026-05-06 14:48 42.17804 26.94401 36034 ft 417 kts 302°
2026-05-06 14:49 42.20630 26.87578 36031 ft 417 kts 302°
2026-05-06 14:49 42.23442 26.80742 36030 ft 416 kts 302°
2026-05-06 14:50 42.25779 26.75028 36031 ft 416 kts 302°
2026-05-06 14:50 42.28569 26.68188 36028 ft 416 kts 302°
2026-05-06 14:51 42.31343 26.61391 36026 ft 415 kts 302°
2026-05-06 14:51 42.34136 26.54528 36026 ft 415 kts 302°
2026-05-06 14:52 42.36912 26.47703 36022 ft 414 kts 302°
2026-05-06 14:52 42.39684 26.40868 36021 ft 414 kts 302°
2026-05-06 14:53 42.42425 26.34089 36017 ft 413 kts 302°
2026-05-06 14:53 42.45177 26.27251 36015 ft 413 kts 302°
2026-05-06 14:54 42.47926 26.20418 36017 ft 412 kts 302°
2026-05-06 14:54 42.50665 26.13582 36015 ft 412 kts 301°
2026-05-06 14:55 42.53399 26.06747 36007 ft 412 kts 301°
2026-05-06 14:55 42.56106 25.99971 36002 ft 412 kts 301°
2026-05-06 14:56 42.58830 25.93133 36000 ft 412 kts 301°
2026-05-06 14:56 42.61552 25.86292 36011 ft 411 kts 301°
2026-05-06 14:57 42.64257 25.79483 36004 ft 411 kts 301°
2026-05-06 14:57 42.66958 25.72639 36002 ft 411 kts 301°
2026-05-06 14:58 42.69659 25.65776 35993 ft 411 kts 301°
2026-05-06 14:58 42.72364 25.58905 35984 ft 412 kts 301°
2026-05-06 14:59 42.75074 25.52014 35989 ft 412 kts 301°
2026-05-06 14:59 42.77761 25.45174 35982 ft 412 kts 301°
2026-05-06 15:00 42.80455 25.38275 35983 ft 412 kts 300°
2026-05-06 15:00 42.83148 25.31366 35982 ft 412 kts 300°
2026-05-06 15:01 42.85822 25.24483 35985 ft 412 kts 300°
2026-05-06 15:01 42.88500 25.17570 35988 ft 412 kts 300°
2026-05-06 15:02 42.91184 25.10641 35981 ft 413 kts 300°
2026-05-06 15:02 42.93876 25.03693 35979 ft 413 kts 300°
2026-05-06 15:03 42.96558 24.96742 35976 ft 413 kts 300°
2026-05-06 15:03 42.99209 24.89839 35978 ft 413 kts 300°
2026-05-06 15:04 43.01878 24.82879 35974 ft 414 kts 300°
2026-05-06 15:04 43.04542 24.75898 35970 ft 414 kts 299°
2026-05-06 15:05 43.07205 24.68907 35969 ft 414 kts 299°
2026-05-06 15:05 43.09869 24.61923 35966 ft 414 kts 299°
2026-05-06 15:06 43.12527 24.54929 35967 ft 414 kts 299°
2026-05-06 15:06 43.15160 24.47962 35961 ft 414 kts 299°
2026-05-06 15:07 43.17810 24.40930 35966 ft 414 kts 299°
2026-05-06 15:07 43.20459 24.33912 35962 ft 414 kts 298°
2026-05-06 15:08 43.23092 24.26930 35959 ft 415 kts 298°
2026-05-06 15:08 43.25724 24.19901 35959 ft 415 kts 298°
2026-05-06 15:09 43.28369 24.12822 35952 ft 415 kts 298°
2026-05-06 15:09 43.31003 24.05763 35952 ft 415 kts 298°
2026-05-06 15:10 43.33614 23.98730 35953 ft 415 kts 298°
2026-05-06 15:10 43.36243 23.91648 35950 ft 416 kts 298°
2026-05-06 15:11 43.38870 23.84562 35950 ft 416 kts 298°
2026-05-06 15:11 43.41480 23.77496 35950 ft 416 kts 298°
2026-05-06 15:12 43.44096 23.70378 35945 ft 416 kts 297°
2026-05-06 15:12 43.46704 23.63269 35944 ft 416 kts 297°
2026-05-06 15:13 43.49297 23.56197 35946 ft 416 kts 297°
2026-05-06 15:13 43.51908 23.49070 35950 ft 416 kts 297°
2026-05-06 15:14 43.54514 23.41927 35951 ft 416 kts 297°
2026-05-06 15:14 43.57109 23.34788 35957 ft 417 kts 297°
2026-05-06 15:15 43.59691 23.27668 35957 ft 417 kts 297°
2026-05-06 15:15 43.62282 23.20495 35956 ft 417 kts 297°
2026-05-06 15:16 43.64852 23.13374 35951 ft 417 kts 297°
2026-05-06 15:16 43.67437 23.06197 35951 ft 417 kts 297°
2026-05-06 15:17 43.70027 22.99007 35956 ft 417 kts 296°
2026-05-06 15:17 43.72602 22.91823 35948 ft 417 kts 296°
2026-05-06 15:18 43.75156 22.84660 35958 ft 417 kts 296°
2026-05-06 15:18 43.77719 22.77451 35964 ft 417 kts 296°
2026-05-06 15:19 43.80282 22.70237 35954 ft 417 kts 296°
2026-05-06 15:19 43.82840 22.63011 35953 ft 418 kts 296°
2026-05-06 15:20 43.85402 22.55770 35954 ft 418 kts 296°
2026-05-06 15:20 43.87941 22.48576 35955 ft 418 kts 296°
2026-05-06 15:21 43.90493 22.41328 35950 ft 418 kts 298°
2026-05-06 15:21 43.93936 22.34832 35955 ft 419 kts 309°
2026-05-06 15:22 43.97744 22.28691 35954 ft 419 kts 309°
2026-05-06 15:22 44.01521 22.22560 35948 ft 420 kts 309°
2026-05-06 15:23 44.05317 22.16383 35952 ft 420 kts 309°
2026-05-06 15:23 44.09115 22.10196 35948 ft 420 kts 309°
2026-05-06 15:24 44.12906 22.04005 35958 ft 420 kts 309°
2026-05-06 15:24 44.16708 21.97791 35954 ft 421 kts 309°
2026-05-06 15:25 44.20473 21.91617 35952 ft 421 kts 308°
2026-05-06 15:25 44.24258 21.85383 35952 ft 421 kts 308°
2026-05-06 15:26 44.28042 21.79146 35959 ft 421 kts 308°
2026-05-06 15:26 44.31831 21.72895 35955 ft 421 kts 308°
2026-05-06 15:27 44.35619 21.66637 35947 ft 421 kts 308°
2026-05-06 15:27 44.39404 21.60360 35954 ft 421 kts 308°
2026-05-06 15:28 44.43156 21.54114 35954 ft 422 kts 308°
2026-05-06 15:28 44.46934 21.47824 35950 ft 421 kts 308°
2026-05-06 15:29 44.50715 21.41528 35951 ft 421 kts 308°
2026-05-06 15:29 44.54459 21.35262 35943 ft 422 kts 308°
2026-05-06 15:30 44.58230 21.28937 35938 ft 422 kts 308°
2026-05-06 15:30 44.62000 21.22600 35950 ft 422 kts 308°
2026-05-06 15:31 44.65740 21.16309 35948 ft 422 kts 308°
2026-05-06 15:31 44.69501 21.09965 35945 ft 422 kts 307°
2026-05-06 15:32 44.75131 21.00432 35940 ft 422 kts 307°
2026-05-06 15:32 44.78882 20.94058 35949 ft 422 kts 307°
2026-05-06 15:33 44.82604 20.87724 35950 ft 422 kts 307°
2026-05-06 15:33 44.86352 20.81340 35946 ft 422 kts 307°
2026-05-06 15:34 44.90047 20.75031 35947 ft 421 kts 307°
2026-05-06 15:34 44.93776 20.68646 35947 ft 421 kts 307°
2026-05-06 15:35 44.97479 20.62296 35942 ft 421 kts 307°
2026-05-06 15:35 45.01197 20.55892 35934 ft 421 kts 307°
2026-05-06 15:36 45.04916 20.49476 35932 ft 422 kts 307°
2026-05-06 15:36 45.08632 20.43058 35934 ft 421 kts 306°
2026-05-06 15:37 45.12330 20.36656 35936 ft 421 kts 306°
2026-05-06 15:37 45.16036 20.30225 35935 ft 421 kts 306°
2026-05-06 15:38 45.19719 20.23821 35935 ft 421 kts 306°
2026-05-06 15:38 45.23417 20.17367 35934 ft 421 kts 306°
2026-05-06 15:39 45.26488 20.11990 35935 ft 421 kts 306°
2026-05-06 15:39 45.30185 20.05529 35934 ft 421 kts 306°
2026-05-06 15:40 45.33874 19.99059 35933 ft 421 kts 306°
2026-05-06 15:40 45.37537 19.92609 35930 ft 421 kts 306°
2026-05-06 15:41 45.41216 19.86120 35931 ft 421 kts 306°
2026-05-06 15:41 45.44896 19.79612 35935 ft 421 kts 305°
2026-05-06 15:42 45.48574 19.73100 35928 ft 422 kts 305°
2026-05-06 15:42 45.52252 19.66574 35931 ft 422 kts 305°
2026-05-06 15:43 45.55898 19.60088 35932 ft 422 kts 305°
2026-05-06 15:43 45.59577 19.53537 35933 ft 422 kts 305°
2026-05-06 15:44 45.63242 19.46983 35929 ft 422 kts 305°
2026-05-06 15:44 45.66909 19.40418 35927 ft 422 kts 305°
2026-05-06 15:45 45.70550 19.33876 35926 ft 422 kts 304°
2026-05-06 15:45 45.74209 19.27284 35915 ft 422 kts 304°
2026-05-06 15:46 45.77858 19.20686 35912 ft 422 kts 304°
2026-05-06 15:46 45.81510 19.14072 35906 ft 423 kts 304°
2026-05-06 15:47 45.85168 19.07450 35909 ft 423 kts 304°
2026-05-06 15:47 45.88790 19.00864 35909 ft 423 kts 304°
2026-05-06 15:48 45.92457 18.94175 35913 ft 424 kts 304°
2026-05-06 15:48 45.96137 18.87589 35914 ft 425 kts 305°
2026-05-06 15:49 45.99928 18.81055 35920 ft 425 kts 306°
2026-05-06 15:49 46.03725 18.74522 35918 ft 425 kts 305°
2026-05-06 15:50 46.07492 18.67947 35922 ft 425 kts 304°
2026-05-06 15:50 46.11230 18.61384 35929 ft 426 kts 304°
2026-05-06 15:51 46.14990 18.54769 35932 ft 426 kts 304°
2026-05-06 15:51 46.18739 18.48147 35934 ft 426 kts 304°
2026-05-06 15:52 46.22463 18.41560 35933 ft 426 kts 304°
2026-05-06 15:52 46.26210 18.34931 35932 ft 426 kts 304°
2026-05-06 15:53 46.29955 18.28291 35930 ft 426 kts 304°
2026-05-06 15:53 46.33707 18.21632 35930 ft 426 kts 304°
2026-05-06 15:54 46.37448 18.14962 35925 ft 427 kts 304°
2026-05-06 15:54 46.41156 18.08318 35926 ft 427 kts 304°
2026-05-06 15:55 46.44893 18.01607 35926 ft 427 kts 304°
2026-05-06 15:55 46.48630 17.94891 35921 ft 427 kts 303°
2026-05-06 15:56 46.52364 17.88172 35920 ft 427 kts 304°
2026-05-06 15:56 46.56080 17.81484 35914 ft 428 kts 303°
2026-05-06 15:57 46.59810 17.74745 35907 ft 428 kts 303°
2026-05-06 15:57 46.63531 17.67995 35900 ft 428 kts 303°
2026-05-06 15:58 46.67255 17.61222 35899 ft 428 kts 303°
2026-05-06 15:58 46.70980 17.54435 35894 ft 429 kts 303°
2026-05-06 15:59 46.74679 17.47665 35893 ft 429 kts 303°
2026-05-06 15:59 46.78395 17.40844 35889 ft 430 kts 303°
2026-05-06 16:00 46.82130 17.33994 35892 ft 430 kts 303°
2026-05-06 16:00 46.85854 17.27149 35888 ft 430 kts 303°
2026-05-06 16:01 46.89580 17.20290 35891 ft 430 kts 303°
2026-05-06 16:01 46.93298 17.13418 35891 ft 431 kts 303°
2026-05-06 16:02 46.96989 17.06559 35887 ft 431 kts 303°
2026-05-06 16:02 47.00701 16.99653 35879 ft 431 kts 303°
2026-05-06 16:03 47.04420 16.92726 35875 ft 432 kts 303°
2026-05-06 16:03 47.08139 16.85787 35870 ft 433 kts 303°
2026-05-06 16:04 47.11859 16.78820 35868 ft 433 kts 303°
2026-05-06 16:04 47.15552 16.71889 35865 ft 434 kts 303°
2026-05-06 16:05 47.19275 16.64893 35859 ft 434 kts 303°
2026-05-06 16:05 47.22987 16.57879 35859 ft 434 kts 302°
2026-05-06 16:06 47.26697 16.50850 35864 ft 434 kts 302°
2026-05-06 16:06 47.30379 16.43779 35851 ft 434 kts 301°
2026-05-06 16:07 47.33924 16.36644 35850 ft 433 kts 300°
2026-05-06 16:07 47.37454 16.29425 35843 ft 433 kts 300°
2026-05-06 16:08 47.40993 16.22216 35841 ft 434 kts 300°
2026-05-06 16:08 47.44549 16.15010 35837 ft 434 kts 301°
2026-05-06 16:09 47.48097 16.07841 35837 ft 434 kts 300°
2026-05-06 16:09 47.51648 16.00614 35830 ft 434 kts 300°
2026-05-06 16:10 47.55184 15.93383 35832 ft 434 kts 300°
2026-05-06 16:10 47.58724 15.86130 35825 ft 434 kts 300°
2026-05-06 16:11 47.62238 15.78921 35824 ft 434 kts 300°
2026-05-06 16:11 47.65775 15.71658 35815 ft 434 kts 300°
2026-05-06 16:12 47.69310 15.64374 35806 ft 434 kts 300°
2026-05-06 16:12 47.72834 15.57080 35798 ft 434 kts 300°
2026-05-06 16:13 47.76346 15.49788 35792 ft 434 kts 300°
2026-05-06 16:13 47.79835 15.42517 35786 ft 434 kts 300°
2026-05-06 16:14 47.83338 15.35201 35780 ft 434 kts 300°
2026-05-06 16:14 47.86839 15.27877 35769 ft 434 kts 300°
2026-05-06 16:15 47.90338 15.20548 35762 ft 433 kts 299°
2026-05-06 16:15 47.93813 15.13253 35756 ft 434 kts 300°
2026-05-06 16:16 47.97300 15.05903 35747 ft 433 kts 299°
2026-05-06 16:16 48.00783 14.98544 35722 ft 433 kts 299°
2026-05-06 16:17 48.04258 14.91182 35719 ft 434 kts 299°
2026-05-06 16:17 48.07726 14.83808 35719 ft 433 kts 299°
2026-05-06 16:18 48.11168 14.76463 35709 ft 434 kts 299°
2026-05-06 16:18 48.14637 14.69046 35708 ft 434 kts 299°
2026-05-06 16:19 48.18100 14.61625 35705 ft 434 kts 299°
2026-05-06 16:19 48.21560 14.54191 35695 ft 435 kts 299°
2026-05-06 16:20 48.25027 14.46734 35698 ft 435 kts 299°
2026-05-06 16:20 48.28465 14.39300 35690 ft 436 kts 299°
2026-05-06 16:21 48.31920 14.31807 35691 ft 436 kts 298°
2026-05-06 16:21 48.35382 14.24290 35693 ft 437 kts 299°
2026-05-06 16:22 48.38840 14.16770 35694 ft 437 kts 298°
2026-05-06 16:22 48.42277 14.09274 35694 ft 437 kts 298°
2026-05-06 16:23 48.45727 14.01707 35698 ft 438 kts 298°
2026-05-06 16:23 48.49167 13.94131 35703 ft 438 kts 298°
2026-05-06 16:24 48.52613 13.86541 35708 ft 439 kts 298°
2026-05-06 16:24 48.56063 13.78925 35705 ft 439 kts 298°
2026-05-06 16:25 48.59485 13.71353 35705 ft 439 kts 298°
2026-05-06 16:25 48.62924 13.63704 35709 ft 440 kts 298°
2026-05-06 16:26 48.66379 13.56059 35710 ft 441 kts 300°
2026-05-06 16:26 48.69481 13.49889 35712 ft 443 kts 303°
2026-05-06 16:27 48.73377 13.42608 35712 ft 444 kts 303°
2026-05-06 16:27 48.77242 13.35276 35714 ft 444 kts 303°
2026-05-06 16:28 48.81031 13.27875 35724 ft 444 kts 302°
2026-05-06 16:28 48.84768 13.20492 35723 ft 444 kts 302°
2026-05-06 16:29 48.88539 13.13055 35728 ft 444 kts 302°
2026-05-06 16:29 48.92321 13.05609 35725 ft 445 kts 302°
2026-05-06 16:30 48.95485 12.99371 35723 ft 445 kts 302°
2026-05-06 16:30 48.99877 12.90684 35720 ft 445 kts 303°
2026-05-06 16:31 49.03651 12.83193 35722 ft 445 kts 302°
2026-05-06 16:31 49.07423 12.75670 35727 ft 446 kts 302°
2026-05-06 16:32 49.11166 12.68190 35731 ft 447 kts 302°
2026-05-06 16:32 49.14936 12.60626 35738 ft 447 kts 302°
2026-05-06 16:33 49.18717 12.53048 35746 ft 448 kts 302°
2026-05-06 16:34 49.24388 12.41644 35749 ft 448 kts 302°
2026-05-06 16:34 49.28124 12.34065 35753 ft 449 kts 302°
2026-05-06 16:35 49.31885 12.26426 35762 ft 449 kts 302°
2026-05-06 16:35 49.35657 12.18770 35761 ft 449 kts 302°
2026-05-06 16:36 49.39420 12.11092 35762 ft 449 kts 302°
2026-05-06 16:36 49.43151 12.03452 35758 ft 449 kts 302°
2026-05-06 16:37 49.46897 11.95756 35752 ft 449 kts 302°
2026-05-06 16:37 49.50638 11.88045 35750 ft 449 kts 302°
2026-05-06 16:38 49.54376 11.80320 35752 ft 450 kts 302°
2026-05-06 16:38 49.58114 11.72581 35744 ft 450 kts 302°
2026-05-06 16:39 49.61842 11.64840 35744 ft 450 kts 302°
2026-05-06 16:39 49.65569 11.57072 35746 ft 450 kts 302°
2026-05-06 16:40 49.69292 11.49293 35751 ft 450 kts 302°
2026-05-06 16:40 49.73000 11.41538 35755 ft 451 kts 302°
2026-05-06 16:41 49.76717 11.33721 35759 ft 451 kts 302°
2026-05-06 16:41 49.80432 11.25883 35762 ft 452 kts 302°
2026-05-06 16:42 49.84156 11.18028 35762 ft 452 kts 302°
2026-05-06 16:42 49.87878 11.10155 35764 ft 453 kts 302°
2026-05-06 16:43 49.91589 11.02252 35768 ft 453 kts 302°
2026-05-06 16:43 49.95302 10.94336 35764 ft 453 kts 302°
2026-05-06 16:44 49.99005 10.86409 35763 ft 453 kts 302°
2026-05-06 16:44 50.02715 10.78451 35761 ft 454 kts 302°
2026-05-06 16:45 50.06391 10.70540 35764 ft 455 kts 302°
2026-05-06 16:45 50.10096 10.62551 35763 ft 455 kts 302°
2026-05-06 16:46 50.13802 10.54526 35771 ft 456 kts 301°
2026-05-06 16:46 50.17503 10.46487 35764 ft 456 kts 301°
2026-05-06 16:47 50.21196 10.38436 35768 ft 457 kts 301°
2026-05-06 16:47 50.24837 10.30361 35761 ft 457 kts 301°
2026-05-06 16:48 50.28480 10.22192 35765 ft 457 kts 301°
2026-05-06 16:48 50.32120 10.14010 35767 ft 458 kts 301°
2026-05-06 16:49 50.35765 10.05815 35770 ft 458 kts 301°
2026-05-06 16:49 50.39414 9.97610 35767 ft 459 kts 301°
2026-05-06 16:50 50.43052 9.89377 35778 ft 459 kts 301°
2026-05-06 16:50 50.46657 9.81177 35778 ft 459 kts 301°
2026-05-06 16:51 50.50281 9.72924 35780 ft 459 kts 301°
2026-05-06 16:51 50.53903 9.64641 35781 ft 460 kts 301°
2026-05-06 16:52 50.57521 9.56350 35785 ft 460 kts 300°
2026-05-06 16:52 50.61131 9.48039 35788 ft 460 kts 300°
2026-05-06 16:53 50.64740 9.39705 35789 ft 460 kts 300°
2026-05-06 16:53 50.68344 9.31354 35791 ft 460 kts 300°
2026-05-06 16:54 50.71939 9.23042 35795 ft 460 kts 300°
2026-05-06 16:54 50.75536 9.14676 35798 ft 460 kts 300°
2026-05-06 16:55 50.79128 9.06271 35806 ft 460 kts 300°
2026-05-06 16:55 50.82711 8.97879 35800 ft 460 kts 300°
2026-05-06 16:56 50.86490 8.89663 35810 ft 463 kts 304°
2026-05-06 16:56 50.90568 8.81727 35820 ft 464 kts 306°
2026-05-06 16:57 50.94638 8.73876 35810 ft 463 kts 305°
2026-05-06 16:57 50.98644 8.65860 35805 ft 462 kts 304°
2026-05-06 16:58 51.03059 8.58382 35812 ft 469 kts 319°
2026-05-06 16:58 51.08470 8.52595 35812 ft 472 kts 324°
2026-05-06 16:59 51.13991 8.46887 35820 ft 472 kts 323°
2026-05-06 16:59 51.19494 8.41145 35827 ft 472 kts 323°
2026-05-06 17:00 51.24992 8.35387 35621 ft 472 kts 323°
2026-05-06 17:00 51.27754 8.32489 34560 ft 479 kts 323°
2026-05-06 17:00 51.30564 8.29535 33474 ft 485 kts 323°
2026-05-06 17:00 51.33365 8.26591 32353 ft 489 kts 323°
2026-05-06 17:01 51.36214 8.23588 31258 ft 491 kts 324°
2026-05-06 17:01 51.39073 8.20573 30177 ft 493 kts 324°
2026-05-06 17:01 51.41942 8.17544 29166 ft 490 kts 324°
2026-05-06 17:01 51.44631 8.14273 28300 ft 481 kts 314°
2026-05-06 17:02 51.46786 8.10238 27299 ft 473 kts 300°
2026-05-06 17:02 51.48263 8.05557 26244 ft 468 kts 286°
2026-05-06 17:02 51.48966 8.00486 25145 ft 464 kts 272°
2026-05-06 17:02 51.48871 7.95343 23998 ft 461 kts 258°
2026-05-06 17:03 51.48156 7.90325 22903 ft 460 kts 253°
2026-05-06 17:03 51.47388 7.85401 22493 ft 445 kts 254°
2026-05-06 17:03 51.46666 7.80734 22357 ft 427 kts 254°
2026-05-06 17:03 51.45968 7.76204 22226 ft 411 kts 254°
2026-05-06 17:04 51.45286 7.71827 22089 ft 396 kts 253°
2026-05-06 17:04 51.44581 7.67636 21956 ft 383 kts 252°
2026-05-06 17:04 51.43855 7.63604 21828 ft 370 kts 251°
2026-05-06 17:04 51.43061 7.59764 21696 ft 355 kts 242°
2026-05-06 17:05 51.41693 7.56599 21559 ft 339 kts 226°
2026-05-06 17:05 51.40075 7.53885 21229 ft 334 kts 224°
2026-05-06 17:05 51.38449 7.51245 20828 ft 331 kts 224°
2026-05-06 17:05 51.36846 7.48662 20435 ft 330 kts 224°
2026-05-06 17:06 51.35231 7.46068 20036 ft 328 kts 224°
2026-05-06 17:06 51.33692 7.43393 19634 ft 327 kts 234°
2026-05-06 17:06 51.32491 7.40297 19253 ft 327 kts 238°
2026-05-06 17:06 51.31357 7.37163 18885 ft 326 kts 238°
2026-05-06 17:07 51.30229 7.34030 18529 ft 324 kts 238°
2026-05-06 17:07 51.29107 7.30916 18186 ft 322 kts 238°
2026-05-06 17:07 51.27988 7.27824 17810 ft 320 kts 238°
2026-05-06 17:07 51.26875 7.24752 17421 ft 318 kts 238°
2026-05-06 17:08 51.25768 7.21704 17033 ft 317 kts 238°
2026-05-06 17:08 51.25546 7.21093 16928 ft 317 kts 238°
2026-05-06 17:08 51.24540 7.18296 16491 ft 320 kts 238°
2026-05-06 17:08 51.23429 7.15244 15970 ft 315 kts 238°
2026-05-06 17:09 51.22341 7.12262 15467 ft 308 kts 238°
2026-05-06 17:09 51.21276 7.09341 14967 ft 301 kts 238°
2026-05-06 17:09 51.20230 7.06483 14498 ft 295 kts 236°
2026-05-06 17:09 51.18971 7.04001 14016 ft 289 kts 225°
2026-05-06 17:10 51.17560 7.01743 13526 ft 285 kts 224°
2026-05-06 17:10 51.16154 6.99548 12992 ft 280 kts 223°
2026-05-06 17:10 51.15233 6.98117 12648 ft 278 kts 223°
2026-05-06 17:10 51.13853 6.95980 12129 ft 275 kts 223°
2026-05-06 17:11 51.12490 6.93878 11617 ft 272 kts 223°
2026-05-06 17:11 51.11133 6.91793 11100 ft 270 kts 223°
2026-05-06 17:11 51.09786 6.89733 10625 ft 268 kts 223°
2026-05-06 17:11 51.08509 6.87598 10128 ft 265 kts 233°
2026-05-06 17:12 51.07490 6.85173 9637 ft 262 kts 238°
2026-05-06 17:12 51.06535 6.82720 9102 ft 259 kts 238°
2026-05-06 17:12 51.05601 6.80301 8583 ft 255 kts 238°
2026-05-06 17:12 51.04683 6.77926 8051 ft 250 kts 238°
2026-05-06 17:13 51.03779 6.75590 7540 ft 246 kts 238°
2026-05-06 17:13 51.02883 6.73279 7095 ft 244 kts 238°
2026-05-06 17:13 51.01990 6.70982 6721 ft 244 kts 238°
2026-05-06 17:13 51.01096 6.68686 6355 ft 244 kts 238°
2026-05-06 17:14 51.00268 6.66382 5973 ft 243 kts 250°
2026-05-06 17:14 51.00099 6.63756 5585 ft 241 kts 282°
2026-05-06 17:14 51.00801 6.61390 5209 ft 239 kts 308°
2026-05-06 17:14 51.01876 6.59381 4829 ft 239 kts 313°
2026-05-06 17:15 51.02984 6.57438 4544 ft 234 kts 313°
2026-05-06 17:15 51.04104 6.55578 4295 ft 230 kts 323°
2026-05-06 17:15 51.05493 6.54458 4034 ft 221 kts 349°
2026-05-06 17:15 51.06999 6.54241 3786 ft 215 kts 358°
2026-05-06 17:16 51.08483 6.54130 3512 ft 213 kts 358°
2026-05-06 17:16 51.09955 6.54018 3246 ft 209 kts 358°
2026-05-06 17:16 51.11362 6.53907 3066 ft 198 kts 358°
2026-05-06 17:16 51.12685 6.53802 3045 ft 181 kts 358°
2026-05-06 17:17 51.13920 6.53708 3050 ft 174 kts 359°
2026-05-06 17:17 51.15117 6.53620 3034 ft 171 kts 359°
2026-05-06 17:17 51.16300 6.53562 3026 ft 169 kts
2026-05-06 17:17 51.17428 6.54047 3028 ft 168 kts 27°
2026-05-06 17:18 51.18326 6.55210 3027 ft 165 kts 51°
2026-05-06 17:18 51.19033 6.56620 3015 ft 161 kts 51°
2026-05-06 17:18 51.19715 6.58003 2892 ft 159 kts 51°
2026-05-06 17:18 51.20389 6.59393 2700 ft 158 kts 51°
2026-05-06 17:19 51.21058 6.60781 2506 ft 157 kts 51°
2026-05-06 17:19 51.21724 6.62165 2295 ft 157 kts 51°
2026-05-06 17:19 51.22366 6.63503 2098 ft 148 kts 51°
2026-05-06 17:19 51.22980 6.64784 1897 ft 146 kts 50°
2026-05-06 17:20 51.23592 6.66062 1702 ft 144 kts 51°
2026-05-06 17:20 51.24193 6.67317 1498 ft 140 kts 50°
2026-05-06 17:20 51.24784 6.68551 1309 ft 139 kts 50°
2026-05-06 17:20 51.25366 6.69768 1105 ft 138 kts 50°
2026-05-06 17:21 51.25943 6.70975 906 ft 135 kts 49°
2026-05-06 17:21 51.26510 6.72161 710 ft 135 kts 50°
2026-05-06 17:21 51.27087 6.73367 523 ft 136 kts 51°
2026-05-06 17:21 51.27652 6.74553 332 ft 136 kts 49°
2026-05-06 17:22 51.28223 6.75763 146 ft 134 kts 50°
2026-05-06 17:22 51.28714 6.76780 135 ft 91 kts 52°
2026-05-06 17:22 51.28989 6.77356 133 ft 36 kts 52°
2026-05-06 17:22 51.29009 6.77558 135 ft 14 kts 126°
2026-05-06 17:23 51.28947 6.77638 137 ft 10 kts 143°
2026-05-06 17:23 51.28896 6.77628 137 ft 8 kts 224°
2026-05-06 17:23 51.28866 6.77567 137 ft 6 kts 233°
2026-05-06 17:23 51.28842 6.77514 137 ft 6 kts 232°
2026-05-06 17:24 51.28789 6.77405 137 ft 19 kts 233°
2026-05-06 17:24 51.28720 6.77259 137 ft 15 kts 232°
2026-05-06 17:24 51.28661 6.77136 137 ft 13 kts 233°
2026-05-06 17:24 51.28610 6.77029 137 ft 11 kts 233°
2026-05-06 17:25 51.28562 6.76927 137 ft 13 kts 233°
2026-05-06 17:25 51.28495 6.76786 137 ft 19 kts 232°
2026-05-06 17:25 51.28411 6.76614 137 ft 22 kts 232°
2026-05-06 17:25 51.28318 6.76419 137 ft 23 kts 233°
2026-05-06 17:26 51.28219 6.76210 137 ft 23 kts 233°
2026-05-06 17:26 51.28153 6.76072 137 ft 9 kts 232°
2026-05-06 17:26 51.28109 6.76025 137 ft 10 kts 183°
2026-05-06 17:26 51.28032 6.76047 137 ft 13 kts 181°
2026-05-06 17:27 51.27968 6.76047 137 ft 8 kts 178°
2026-05-06 17:27 51.27917 6.76048 137 ft 7 kts 180°
2026-05-06 17:27 51.27873 6.76049 137 ft 6 kts 172°
2026-05-06 17:27 51.27842 6.76111 137 ft 8 kts 96°
2026-05-06 17:28 51.27840 6.76190 137 ft 6 kts 99°
2026-05-06 17:28 51.27810 6.76222 137 ft 5 kts 159°
2026-05-06 17:28 51.27782 6.76238 137 ft 4 kts 161°
2026-05-06 17:28 51.27760 6.76249 137 ft 3 kts 162°
2026-05-06 17:29 51.27751 6.76253 137 ft 0 kts 163°